GW6491 Weather Reports


time (UTC)temp
F
wind
direction
speed
knots
gust
knots
rain 1hr
in
rain 24hr
in
rain mn
in
humidity
%
barometer
mb
20260505192427 80 0 3.5 8.7 0.00 0.12 0.12 100 1009.6
20260505191924 80 0 2.6 5.2 0.00 0.12 0.12 100 1009.6
20260505191424 80 0 3.5 6.1 0.00 0.12 0.12 100 1009.6
20260505190920 80 0 1.7 5.2 0.00 0.12 0.12 100 1009.6
20260505190415 80 0 3.5 9.6 0.00 0.12 0.12 100 1009.6
20260505185910 80 0 4.3 8.7 0.00 0.12 0.12 100 1009.3
20260505185408 80 0 3.5 11.3 0.00 0.12 0.12 100 1009.3
20260505184904 80 0 7.0 13.0 0.47 0.11 0.11 100 1009.3
20260505184401 80 0 7.8 15.6 0.00 0.11 0.11 100 1009.3
20260505183858 80 0 10.4 17.4 0.00 0.10 0.10 100 1009.3
20260505183355 80 0 7.0 11.3 0.00 0.10 0.10 100 1009.0
20260505182851 80 0 7.0 13.9 0.00 0.10 0.10 100 1009.3
20260505182348 80 0 5.2 8.7 0.00 0.10 0.10 100 1009.0
20260505181845 80 0 4.3 10.4 0.00 0.10 0.10 100 1009.0
20260505181342 80 0 7.0 13.9 0.00 0.10 0.10 100 1009.0
20260505180838 80 0 5.2 9.6 0.00 0.10 0.10 100 1009.0
20260505180335 80 0 4.3 9.6 0.00 0.10 0.10 100 1009.0
20260505175832 80 0 4.3 7.8 0.00 0.10 0.10 100 1009.0
20260505175328 80 0 4.3 9.6 0.00 0.10 0.10 100 1009.0
20260505174825 80 0 4.3 13.9 0.00 0.10 0.10 100 1009.0
20260505174322 80 0 0.9 6.1 0.00 0.10 0.10 100 1009.0
20260505173818 80 0 6.1 13.9 0.00 0.10 0.10 100 1009.0
20260505173314 80 0 6.1 13.0 0.00 0.10 0.10 100 1009.0
20260505172812 80 0 2.6 11.3 0.00 0.10 0.10 100 1009.0
20260505172310 80 0 5.2 10.4 0.00 0.10 0.10 100 1009.0
20260505171804 80 0 5.2 8.7 0.00 0.10 0.10 100 1009.0
20260505171226 80 0 4.3 7.0 0.00 0.10 0.10 100 1009.0
20260505170723 80 0 4.3 7.0 0.00 0.10 0.10 100 1009.0
20260505170220 80 0 3.5 9.6 0.00 0.10 0.10 100 1009.0
20260505165715 80 0 7.0 14.8 0.00 0.10 0.10 100 1009.0
20260505165212 80 0 7.0 13.0 0.00 0.10 0.10 100 1009.0
20260505164707 80 0 6.1 12.2 0.00 0.10 0.10 100 1009.0
20260505164204 80 0 5.2 10.4 0.00 0.10 0.10 100 1009.0
20260505163702 80 0 7.8 13.9 0.00 0.10 0.10 100 1009.0
20260505163200 80 0 7.8 15.6 0.00 0.08 0.08 100 1009.0
20260505162658 80 0 4.3 9.6 0.00 0.08 0.08 100 1009.0
20260505162155 80 0 2.6 7.8 0.00 0.08 0.08 100 1009.3
20260505161652 80 0 6.1 16.5 0.47 0.07 0.07 100 1009.3
20260505161149 80 0 4.3 10.4 0.00 0.07 0.07 100 1009.3
20260505160647 80 0 4.3 8.7 0.47 0.06 0.06 100 1009.3
20260505160144 80 0 3.5 7.8 0.00 0.03 0.03 100 1009.0
20260505153123 80 0 6.1 12.2 0.00 0.03 0.03 100 1009.0
20260505152620 80 0 6.1 10.4 0.00 0.03 0.03 100 1009.3
20260505152116 80 0 4.3 7.8 0.00 0.03 0.03 100 1009.3
20260505151611 80 0 5.2 11.3 0.00 0.03 0.03 100 1009.3
20260505151109 80 0 7.0 13.0 0.00 0.03 0.03 100 1009.3
20260505150605 80 0 7.0 13.0 0.00 0.03 0.03 100 1009.3
20260505140530 80 0 8.7 19.1 0.47 0.01 0.01 100 1010.7
20260505124943 80 0 5.2 8.7 0.00 1.69 1.69 100 1011.7
20260505124440 80 0 6.1 11.3 0.00 1.69 1.69 100 1011.7
20260505123937 80 0 6.1 15.6 0.00 1.69 1.69 100 1011.7
20260505123433 80 0 7.0 13.9 0.00 1.69 1.69 100 1011.7
20260505122929 80 0 2.6 7.0 0.00 1.68 1.68 100 1011.7
20260505122427 80 0 2.6 6.1 0.00 1.68 1.68 100 1011.7
20260505121923 80 0 3.5 8.7 0.00 1.68 1.68 100 1011.7
20260505121421 80 0 5.2 10.4 0.00 1.68 1.68 100 1011.3
20260505120916 80 0 3.5 7.8 0.00 1.68 1.68 100 1011.3
20260505120413 80 0 3.5 9.6 0.00 1.68 1.68 100 1011.7
20260505115912 80 0 4.3 7.0 0.00 1.68 1.68 100 1011.7
20260505115409 80 0 5.2 10.4 0.00 1.68 1.68 100 1011.7
20260505114907 80 0 4.3 8.7 0.00 1.68 1.68 100 1011.7
20260505114403 80 0 3.5 8.7 0.00 1.68 1.68 100 1011.7
20260505113859 80 0 4.3 7.8 0.00 1.68 1.68 100 1011.7
20260505113356 80 0 7.0 11.3 0.00 1.68 1.68 100 1011.7
20260505112851 80 0 4.3 15.6 0.00 1.68 1.68 100 1011.7
20260505112349 80 0 5.2 9.6 0.00 1.68 1.68 100 1011.7
20260505111845 80 0 6.1 13.0 0.00 1.68 1.68 100 1011.7
20260505111340 80 0 4.3 7.0 0.00 1.68 1.68 100 1011.3
20260505110836 80 0 6.1 12.2 0.00 1.68 1.68 100 1011.3
20260505110334 80 0 4.3 7.8 0.00 1.68 1.68 100 1011.3
20260505101809 80 0 7.0 13.0 0.00 1.68 1.68 100 1011.3
20260505101304 80 0 5.2 11.3 0.00 1.68 1.68 100 1011.3
20260505100800 80 0 5.2 12.2 0.00 1.68 1.68 100 1011.3
20260505100257 80 0 5.2 9.6 0.00 1.68 1.68 100 1011.3
20260505095753 80 0 4.3 10.4 0.00 1.68 1.68 100 1011.0
20260505095251 80 0 5.2 10.4 0.00 1.68 1.68 100 1011.0
20260505094746 80 0 6.1 10.4 0.00 1.68 1.68 100 1010.7
20260505094243 80 0 4.3 9.6 0.00 1.68 1.68 100 1010.7
20260505093739 80 0 3.5 7.8 0.00 1.68 1.68 100 1010.7
20260505093237 80 0 5.2 11.3 0.00 1.68 1.68 100 1010.7
20260505092733 80 0 2.6 7.0 0.00 1.68 1.68 100 1010.7
20260505092232 80 0 3.5 6.1 0.00 1.68 1.68 100 1010.7
20260505091729 80 0 6.1 12.2 0.00 1.68 1.68 100 1010.3
20260505091227 80 0 4.3 8.7 0.00 1.68 1.68 100 1010.3
20260505090725 80 0 3.5 8.7 0.00 1.68 1.68 100 1010.3
20260505090223 80 0 2.6 5.2 0.00 1.68 1.68 100 1010.3
20260505085719 80 0 5.2 9.6 0.00 1.68 1.68 100 1010.3
20260505085218 80 0 3.5 6.1 0.00 1.68 1.68 100 1010.3
20260505084715 80 0 6.1 12.2 0.00 1.68 1.68 100 1010.0
20260505084214 80 0 3.5 7.8 0.00 1.68 1.68 100 1010.0
20260505083710 80 0 5.2 9.6 0.00 1.68 1.68 100 1010.0
20260505083207 80 0 6.1 11.3 0.00 1.68 1.68 100 1010.0
20260505082703 80 0 5.2 11.3 0.00 1.68 1.68 100 1009.6
20260505082200 80 0 6.1 13.0 0.00 1.68 1.68 100 1009.6
20260505081656 80 0 5.2 13.9 0.00 1.68 1.68 100 1009.6
20260505081154 80 0 4.3 8.7 0.00 1.68 1.68 100 1009.6
20260505080650 80 0 3.5 7.8 0.00 1.68 1.68 100 1009.6
20260505080146 80 0 5.2 11.3 0.00 1.68 1.68 100 1009.6
20260505075642 80 0 4.3 9.6 0.00 1.68 1.68 100 1009.6
20260505075139 80 0 5.2 11.3 0.00 1.68 1.68 100 1009.6
20260505074636 80 0 3.5 10.4 0.00 1.68 1.68 100 1009.6
20260505074133 80 0 6.1 13.0 0.00 1.68 1.68 100 1009.6
20260505073631 80 0 5.2 10.4 0.00 1.68 1.68 100 1009.6
20260505073129 80 0 6.1 12.2 0.00 1.68 1.68 100 1009.6
20260505072624 80 0 7.0 13.9 0.00 1.68 1.68 100 1009.6
20260505072121 80 0 2.6 9.6 0.00 1.68 1.68 100 1009.6
20260505071617 80 0 4.3 8.7 0.00 1.68 1.68 100 1009.6
20260505071115 80 0 5.2 10.4 0.00 1.68 1.68 100 1009.6
20260505070612 80 0 6.1 12.2 0.00 1.68 1.68 100 1009.6
20260505070108 80 0 3.5 9.6 0.00 1.68 1.68 100 1009.6
20260505065604 80 0 5.2 11.3 0.00 1.68 1.68 100 1009.6
20260505065101 80 0 6.1 13.0 0.00 1.68 1.68 100 1009.3
20260505064557 80 0 6.1 19.1 0.00 1.68 1.68 100 1009.3
20260505064056 80 0 3.5 10.4 0.00 1.68 1.68 100 1009.3
20260505063553 80 0 7.8 14.8 0.00 1.68 1.68 100 1009.3
20260505063049 80 0 6.1 10.4 0.00 1.68 1.68 100 1009.3
20260505062545 80 0 6.1 15.6 0.00 1.68 1.68 100 1009.3
20260505062043 80 0 7.0 13.9 0.00 1.68 1.68 100 1009.3
20260505061540 80 0 5.2 11.3 0.00 1.68 1.68 100 1009.3
20260505061038 80 0 6.1 11.3 0.00 1.68 1.68 100 1009.3
20260505060535 80 0 5.2 11.3 0.00 1.68 1.68 100 1009.3
20260505060031 80 0 5.2 8.7 0.00 1.68 1.68 100 1009.3
20260505055527 80 0 6.1 12.2 0.00 1.68 1.68 100 1009.3
20260505055024 80 0 6.1 13.0 0.00 1.68 1.68 100 1009.3
20260505054521 80 0 5.2 13.0 0.00 1.68 1.68 100 1009.3
20260505054019 80 0 5.2 12.2 0.00 1.68 1.68 100 1009.0
20260505053516 80 0 6.1 13.0 0.00 1.68 1.68 100 1009.0
20260505053013 80 0 7.0 15.6 0.00 1.68 1.68 100 1009.0
20260505052510 80 0 7.0 18.2 0.00 1.68 1.68 100 1009.0
20260505052007 80 0 3.5 12.2 0.00 1.68 1.68 100 1009.0
20260505051504 80 0 4.3 13.0 0.00 1.68 1.68 100 1009.0
20260505051003 80 0 5.2 12.2 0.00 1.68 1.68 100 1008.6
20260505050500 80 0 5.2 12.2 0.00 1.68 1.68 100 1008.6
20260505041428 80 0 6.1 13.9 0.00 1.68 1.68 100 1009.3
20260505040925 80 0 5.2 11.3 0.00 1.68 1.68 100 1009.3
20260505040422 80 0 7.8 11.3 0.00 1.68 1.68 100 1009.3
20260505035919 80 0 7.0 13.9 0.00 1.68 1.68 100 1009.3
20260505035415 80 0 5.2 10.4 0.00 1.68 1.68 100 1009.3
20260505034912 80 0 7.0 12.2 0.00 1.68 1.68 100 1009.6
20260505034409 80 0 6.1 13.9 0.00 1.68 1.68 100 1009.6
20260505033906 80 0 4.3 12.2 0.00 1.68 1.68 100 1009.6
20260505033402 80 0 5.2 11.3 0.00 1.68 1.68 100 1009.6
20260505032901 80 0 6.1 11.3 0.00 1.68 1.68 100 1009.6
20260505032357 80 0 6.1 11.3 0.00 1.68 1.68 100 1009.6
20260505031854 80 0 5.2 12.2 0.00 1.68 1.68 100 1009.6
20260505031351 80 0 3.5 6.1 0.00 1.68 1.68 100 1010.0
20260505030848 80 0 6.1 12.2 0.00 1.68 1.68 100 1010.0
20260505030344 80 0 5.2 11.3 0.00 1.68 1.68 100 1010.0
20260505025839 80 0 6.1 10.4 0.00 1.68 1.68 100 1010.0
20260505025337 80 0 7.0 11.3 0.00 1.68 1.68 100 1010.0
20260505024835 80 0 5.2 8.7 0.00 1.68 1.68 100 1010.0
20260505024333 80 0 4.3 7.0 0.00 1.68 1.68 100 1010.0
20260505023830 80 0 5.2 9.6 0.00 1.68 1.68 100 1010.0
20260505023327 80 0 4.3 7.0 0.00 1.68 1.68 100 1010.0
20260505022824 80 0 4.3 9.6 0.00 1.68 1.68 100 1010.0
20260505022321 80 0 5.2 10.4 0.00 1.68 1.68 100 1010.0
20260505021818 80 0 4.3 8.7 0.00 1.68 1.68 100 1010.0
20260505021315 80 0 3.5 7.8 0.00 1.68 1.68 100 1010.0
20260505020810 80 0 7.0 13.9 0.00 1.68 1.68 100 1010.0
20260505020307 80 0 5.2 8.7 0.00 1.68 1.68 100 1010.3
20260505015803 80 0 6.1 9.6 0.00 1.68 1.68 100 1010.3
20260505015300 80 0 3.5 6.1 0.00 1.68 1.68 100 1010.3
20260505014758 80 0 3.5 9.6 0.00 1.68 1.68 100 1010.3
20260505014255 80 0 1.7 4.3 0.00 1.68 1.68 100 1010.3
20260505013751 80 0 2.6 7.0 0.00 1.68 1.68 100 1010.3
20260505013248 80 0 2.6 4.3 0.00 1.68 1.68 100 1010.3
20260505012747 80 0 3.5 6.1 0.00 1.68 1.68 100 1010.3
20260505012244 80 0 2.6 5.2 0.00 1.68 1.68 100 1010.3
20260505011739 80 0 5.2 9.6 0.00 1.68 1.68 100 1010.3
20260505011237 80 0 3.5 8.7 0.00 1.68 1.68 100 1010.3
20260505010732 80 0 3.5 7.0 0.00 1.68 1.68 100 1010.3
20260505010229 80 0 5.2 9.6 0.00 1.68 1.68 100 1010.7
20260505005725 80 0 2.6 6.1 0.00 1.68 1.68 100 1010.7
20260505005222 80 0 3.5 7.8 0.00 1.68 1.68 100 1010.7
20260505004719 80 0 6.1 11.3 0.00 1.68 1.68 100 1010.7
20260505004216 80 0 3.5 7.8 0.00 1.68 1.68 100 1010.7
20260505003713 80 0 2.6 6.1 0.00 1.68 1.68 100 1010.7
20260505003211 80 0 5.2 10.4 0.00 1.68 1.68 100 1010.7
20260505002707 80 0 5.2 9.6 0.00 1.68 1.68 100 1010.7
20260505002205 80 0 6.1 10.4 0.00 1.68 1.68 100 1010.7
20260505001702 80 0 5.2 10.4 0.00 1.68 1.68 100 1010.7
20260505001159 80 0 6.1 11.3 0.00 1.68 1.68 100 1011.0
20260505000656 80 0 5.2 8.7 0.00 1.68 1.68 100 1011.0
20260505000154 80 0 5.2 11.3 0.00 1.68 1.68 100 1011.0
20260504235650 80 0 5.2 10.4 0.00 1.68 1.68 100 1011.0
20260504235146 80 0 5.2 10.4 0.00 1.68 1.68 100 1011.0
20260504234644 80 0 5.2 10.4 0.00 1.68 1.68 100 1011.3
20260504234141 80 0 7.8 13.9 0.00 1.68 1.68 100 1011.3
20260504233637 80 0 6.1 13.0 0.00 1.68 1.68 100 1011.3
20260504233133 80 0 7.0 12.2 0.00 1.68 1.68 100 1011.3
20260504232631 80 0 7.0 13.9 0.00 1.68 1.68 100 1011.3
20260504232127 80 0 4.3 7.8 0.00 1.68 1.68 100 1011.3
20260504231624 80 0 7.8 13.0 0.00 1.68 1.68 100 1011.3
20260504231120 80 0 5.2 11.3 0.00 1.68 1.68 100 1011.7
20260504230616 80 0 5.2 11.3 0.00 1.68 1.68 100 1011.7
20260504230116 80 0 5.2 11.3 0.00 1.68 1.68 100 1011.3
20260504225613 80 0 5.2 11.3 0.00 1.68 1.68 100 1011.3
20260504225109 80 0 7.0 12.2 0.00 1.68 1.68 100 1011.3
20260504224606 80 0 7.0 13.0 0.00 1.68 1.68 100 1011.3
20260504224103 80 0 7.8 15.6 0.00 1.68 1.68 100 1011.3
20260504223600 80 0 7.8 12.2 0.00 1.68 1.68 100 1011.3
20260504223055 80 0 7.0 13.0 0.00 1.68 1.68 100 1011.3
20260504222553 80 0 8.7 14.8 0.00 1.68 1.68 100 1011.3
20260504222050 80 0 7.0 16.5 0.00 1.68 1.68 100 1011.3
20260504221547 80 0 7.0 13.9 0.00 1.68 1.68 100 1011.3
20260504221044 80 0 6.1 11.3 0.00 1.68 1.68 100 1011.3
20260504220540 80 0 7.0 14.8 0.00 1.68 1.68 100 1011.3
20260504220038 80 0 6.1 11.3 0.00 1.68 1.68 100 1011.3
20260504215534 80 0 6.1 14.8 0.00 1.68 1.68 100 1011.3
20260504215032 80 0 7.8 14.8 0.00 1.68 1.68 100 1011.0
20260504214527 80 0 6.1 13.9 0.00 1.68 1.68 100 1011.0
20260504214024 80 0 5.2 9.6 0.00 1.68 1.68 100 1011.0
20260504213521 80 0 6.1 13.0 0.00 1.68 1.68 100 1010.7
20260504213018 80 0 7.8 17.4 0.00 1.68 1.68 100 1010.7
20260504212513 80 0 10.4 23.5 0.00 1.68 1.68 100 1010.3
20260504212011 80 0 7.0 12.2 0.00 1.68 1.68 100 1010.3
20260504211508 80 0 8.7 18.2 0.00 1.68 1.68 100 1010.0
20260504211005 80 0 8.7 14.8 0.00 1.68 1.68 100 1010.0
20260504210502 80 0 9.6 20.9 0.00 1.68 1.68 100 1010.0
20260504205958 80 0 7.8 13.9 0.00 1.68 1.68 100 1010.0
20260504205456 80 0 7.8 16.5 0.00 1.68 1.68 100 1010.0
20260504204954 80 0 8.7 18.2 0.00 1.68 1.68 100 1010.0
20260504204452 80 0 7.8 14.8 0.00 1.68 1.68 100 1010.0
20260504203951 80 0 7.8 15.6 0.00 1.68 1.68 100 1010.0
20260504203448 80 0 7.0 12.2 0.00 1.68 1.68 100 1010.0
20260504202944 80 0 7.8 13.0 0.00 1.68 1.68 100 1010.0
20260504202441 80 0 7.0 15.6 0.00 1.68 1.68 100 1010.0
20260504201938 80 0 7.8 13.0 0.00 1.68 1.68 100 1010.0
20260504201435 80 0 8.7 15.6 0.00 1.68 1.68 100 1010.0
20260504200933 80 0 8.7 15.6 0.00 1.68 1.68 100 1010.0
20260504200429 80 0 8.7 16.5 0.00 1.68 1.68 100 1010.0
20260504195926 80 0 10.4 19.1 0.00 1.68 1.68 100 1009.6
20260504195422 80 0 9.6 18.2 0.00 1.68 1.68 100 1009.6
20260504194918 80 0 10.4 20.0 0.00 1.67 1.67 100 1009.6
20260504194414 80 0 7.8 14.8 0.00 1.67 1.67 100 1009.6
20260504193910 80 0 7.0 14.8 0.00 1.67 1.67 100 1010.0
20260504193408 80 0 7.8 14.8 0.00 1.67 1.67 100 1010.0
20260504192907 80 0 6.1 16.5 0.00 1.67 1.67 100 1010.0